period_start,C,m1,H,J0,J1,J2,J3,J4,J5,JA,JB,JC,JD,JJ,JK,JN,#
2016-01-05 00:03:39,0.05,5.26,0.00,18.87,22.99,26.19,14.61,54.63,995.47,2049.12,1973.01,2045.26,2216.53,599.84,591.63,57.77,0000 0000 0000 0000 000000
2016-01-05 00:08:41,0.15,5.26,0.00,18.83,22.95,26.11,14.58,54.32,995.62,2049.79,1972.25,2045.03,2216.03,599.79,591.86,57.82,0000 0000 0000 0000 000000
2016-01-05 00:13:42,0.01,5.26,0.00,18.82,22.92,26.13,14.50,54.38,995.59,2049.99,1971.89,2044.96,2215.81,599.77,591.92,57.87,0000 0000 0000 0000 000000
2016-01-05 00:18:44,0.04,5.27,0.00,18.81,22.89,26.24,14.54,54.24,995.59,2049.99,1971.60,2044.72,2215.17,599.94,591.95,57.92,0000 0000 0000 0000 000000
2016-01-05 00:23:45,0.06,5.27,0.00,18.78,22.86,26.21,14.56,54.60,995.41,2050.02,1971.09,2044.15,2215.00,600.09,592.11,57.98,0000 0000 0000 0000 000000
2016-01-05 00:28:46,0.01,5.27,0.00,18.76,22.83,26.17,14.57,54.62,995.42,2050.07,1970.97,2044.00,2214.95,600.02,592.17,58.03,0000 0000 0000 0000 000000
2016-01-05 00:33:48,0.12,5.27,0.00,18.74,22.81,26.17,14.48,54.70,995.29,2050.43,1970.55,2043.84,2214.28,599.65,591.64,58.08,0000 0000 0000 0000 000000
2016-01-05 00:38:49,0.07,5.28,0.00,18.72,22.78,26.23,14.55,54.44,995.41,2050.90,1970.17,2043.49,2214.02,599.32,591.51,58.13,0000 0000 0000 0000 000000
2016-01-05 00:43:50,0.02,5.28,0.00,18.71,22.75,26.16,14.60,54.51,995.43,2050.97,1970.05,2043.08,2214.00,599.99,592.22,58.18,0000 0000 0000 0000 000000
2016-01-05 00:48:51,0.01,5.28,0.00,18.70,22.73,26.19,14.53,54.73,995.44,2050.99,1969.99,2043.01,2213.94,599.95,592.17,58.23,0000 0000 0000 0000 000000
2016-01-05 00:53:52,0.03,5.28,0.00,18.70,22.71,25.97,14.51,54.97,995.58,2050.99,1969.73,2042.97,2213.42,599.43,591.85,58.28,0000 0000 0000 0000 000000
2016-01-05 00:58:54,0.02,5.29,0.00,18.69,22.69,25.84,14.56,54.58,995.62,2051.00,1969.07,2042.97,2213.03,600.43,592.71,58.33,0000 0000 0000 0000 000000
2016-01-05 01:03:55,0.03,5.29,0.00,18.69,22.67,25.80,14.48,54.38,995.65,2051.01,1968.98,2042.64,2213.00,599.94,592.35,58.38,0000 0000 0000 0000 000000
2016-01-05 01:08:56,0.03,5.29,0.00,18.69,22.65,25.85,14.51,54.23,995.79,2051.05,1968.84,2042.19,2212.97,599.76,592.19,58.43,0000 0000 0000 0000 000000
2016-01-05 01:13:58,0.05,5.29,0.00,18.69,22.63,25.80,14.56,54.61,995.81,2051.22,1968.26,2042.01,2212.75,600.25,592.68,58.48,0000 0000 0000 0000 000000
2016-01-05 01:18:59,0.07,5.29,0.00,18.69,22.62,25.86,14.57,54.31,996.09,2051.58,1968.03,2042.00,2212.19,600.01,592.66,58.53,0000 0000 0000 0000 000000
2016-01-05 01:24:00,0.04,5.30,0.00,18.69,22.59,25.89,14.59,53.93,996.11,2051.90,1967.99,2041.96,2212.02,600.39,593.02,58.58,0000 0000 0000 0000 000000
2016-01-05 01:29:02,0.06,5.30,0.00,18.70,22.59,25.84,14.57,53.96,996.11,2051.98,1967.53,2041.55,2211.99,600.18,592.80,58.63,0000 0000 0000 0000 000000
2016-01-05 01:34:03,0.03,5.30,0.00,18.73,22.57,25.96,14.57,54.00,996.18,2051.99,1967.00,2041.03,2211.63,600.03,592.62,58.68,0000 0000 0000 0000 000000
2016-01-05 01:39:05,0.01,5.30,0.00,18.75,22.57,25.94,14.52,53.92,996.43,2051.99,1966.84,2041.00,2211.12,599.72,592.43,58.73,0000 0000 0000 0000 000000
2016-01-05 01:44:06,0.02,5.30,0.00,18.78,22.56,26.08,14.57,54.08,996.60,2052.00,1966.25,2041.00,2211.02,599.97,592.77,58.78,0000 0000 0000 0000 000000
2016-01-05 01:49:07,0.00,5.31,0.00,18.80,22.55,26.00,14.52,53.92,996.64,2052.01,1966.03,2040.99,2211.00,600.13,592.76,58.83,0000 0000 0000 0000 000000
2016-01-05 01:54:09,0.01,5.31,0.00,18.84,22.55,26.01,14.60,53.81,996.82,2052.05,1966.00,2040.96,2211.00,600.04,592.81,58.89,0000 0000 0000 0000 000000
2016-01-05 01:59:10,0.04,5.31,0.00,18.88,22.56,26.07,14.59,53.85,996.84,2052.04,1965.87,2040.52,2210.88,600.36,592.97,58.94,0000 0000 0000 0000 000000
2016-01-05 02:04:11,0.06,5.31,0.00,18.91,22.57,26.12,14.55,53.94,997.02,2052.05,1965.21,2040.03,2210.20,600.07,592.81,58.99,0000 0000 0000 0000 000000
2016-01-05 02:09:13,0.00,5.31,0.00,18.95,22.57,26.05,14.48,53.92,997.02,2052.04,1965.05,2040.00,2210.05,599.89,592.53,59.04,0000 0000 0000 0000 000000
2016-01-05 02:14:13,0.00,5.31,0.00,18.99,22.57,26.08,14.54,53.77,997.09,2052.04,1965.17,2040.00,2210.04,600.03,592.57,59.09,0000 0000 0000 0000 000000
2016-01-05 02:19:15,0.00,5.31,0.00,19.03,22.59,26.09,14.55,53.80,997.09,2052.06,1965.03,2040.00,2210.03,600.29,593.05,59.14,0000 0000 0000 0000 000000
2016-01-05 02:24:16,-0.00,5.31,0.00,19.07,22.59,26.12,14.51,53.96,997.10,2052.05,1965.00,2040.00,2210.00,599.84,592.39,59.19,0000 0000 0000 0000 000000
2016-01-05 02:29:17,0.00,5.31,0.00,19.09,22.61,26.20,14.59,54.14,997.14,2052.07,1965.00,2040.00,2210.00,599.92,592.31,59.24,0000 0000 0000 0000 000000
2016-01-05 02:34:18,-0.01,5.31,0.00,19.12,22.62,26.17,14.49,54.46,997.11,2052.01,1964.98,2039.99,2210.00,599.45,591.80,59.29,0000 0000 0000 0000 000000
2016-01-05 02:39:20,-0.00,5.31,0.00,19.14,22.63,26.19,14.48,54.09,997.42,2052.02,1964.99,2039.99,2210.00,599.82,592.33,59.34,0000 0000 0000 0000 000000
2016-01-05 02:44:21,0.03,5.31,0.00,19.18,22.64,26.22,14.54,53.92,997.44,2052.00,1964.62,2039.94,2209.85,600.67,593.10,59.39,0000 0000 0000 0000 000000
2016-01-05 02:49:22,0.03,5.31,0.00,19.21,22.66,26.23,14.56,53.92,997.51,2052.01,1964.03,2039.77,2209.27,600.24,592.53,59.44,0000 0000 0000 0000 000000
2016-01-05 02:54:24,0.03,5.32,0.00,19.24,22.67,26.28,14.58,53.87,997.57,2052.00,1963.99,2039.40,2209.04,599.95,592.36,59.49,0000 0000 0000 0000 000000
2016-01-05 02:59:25,-0.01,5.32,0.00,19.30,22.69,26.24,14.55,53.87,997.75,2052.00,1963.98,2039.41,2209.04,600.04,592.37,59.54,0000 0000 0000 0000 000000
2016-01-05 03:04:26,0.02,5.32,0.00,19.35,22.71,26.27,14.48,53.73,997.97,2052.00,1963.88,2039.20,2209.00,599.61,591.99,59.59,0000 0000 0000 0000 000000
2016-01-05 03:09:28,0.03,5.32,0.00,19.38,22.73,26.27,14.52,53.79,997.91,2052.00,1963.14,2039.03,2209.00,600.23,592.52,59.64,0000 0000 0000 0000 000000
2016-01-05 03:14:29,0.00,5.32,0.00,19.41,22.75,26.33,14.53,53.95,997.68,2051.99,1963.01,2039.00,2208.99,599.69,591.88,59.69,0000 0000 0000 0000 000000
2016-01-05 03:19:30,0.03,5.32,0.00,19.45,22.77,26.34,14.60,53.87,997.66,2051.97,1962.98,2038.98,2208.30,600.38,592.40,59.74,0000 0000 0000 0000 000000
2016-01-05 03:24:32,0.04,5.32,0.00,19.49,22.79,26.36,14.49,53.88,997.62,2051.96,1962.29,2038.88,2208.01,600.04,591.95,59.79,0000 0000 0000 0000 000000
2016-01-05 03:29:33,0.03,5.32,0.00,19.55,22.82,26.37,14.56,53.92,997.68,2051.93,1962.01,2038.29,2207.99,600.11,591.95,59.85,0000 0000 0000 0000 000000
2016-01-05 03:34:34,-0.01,5.32,0.00,19.60,22.84,26.40,14.50,53.83,997.65,2051.83,1961.99,2038.06,2207.98,599.56,591.44,59.90,0000 0000 0000 0000 000000
2016-01-05 03:39:35,-0.03,5.32,0.00,19.67,22.87,26.42,14.52,53.67,998.01,2051.63,1961.99,2038.03,2207.95,600.02,591.75,59.95,0000 0000 0000 0000 000000
2016-01-05 03:44:37,-0.05,5.32,0.00,19.75,22.90,26.46,14.50,53.47,998.05,2051.13,1961.99,2038.04,2207.95,599.70,591.31,60.00,0000 0000 0000 0000 000000
2016-01-05 03:49:38,0.02,5.32,0.00,19.80,22.93,26.47,14.43,53.50,998.06,2051.00,1961.95,2038.01,2207.39,599.75,591.31,60.05,0000 0000 0000 0000 000000
2016-01-05 03:54:39,0.04,5.32,0.00,19.83,22.96,26.52,14.51,53.67,998.05,2051.00,1961.23,2038.00,2207.03,600.26,591.67,60.10,0000 0000 0000 0000 000000
2016-01-05 03:59:41,0.04,3.55,0.00,19.87,23.00,26.54,12.64,46.98,997.82,2052.33,2500.02,2423.00,2675.08,532.72,524.97,0.01,0000 0000 0000 0000 000002
2016-01-05 04:04:42,0.07,0.00,0.00,19.89,23.03,26.62,14.46,51.76,997.75,2055.00,3568.04,3184.65,3602.37,599.94,591.14,0.03,0000 0000 0000 0000 000000
2016-01-05 04:09:43,0.07,0.00,0.00,19.93,23.06,26.65,14.44,51.50,998.29,2054.98,3565.62,3182.99,3600.63,600.25,591.60,0.08,0000 0000 0000 0000 000000
2016-01-05 04:14:44,0.07,0.00,0.00,20.00,23.08,26.69,14.49,51.38,998.54,2054.89,3564.41,3182.11,3599.30,599.82,591.24,0.13,0000 0000 0000 0000 000000
2016-01-05 04:19:46,0.05,0.00,0.00,20.05,23.11,26.75,14.59,51.61,998.55,2054.38,3563.16,3181.30,3598.10,600.53,591.85,0.18,0000 0000 0000 0000 000000
2016-01-05 04:24:47,0.02,0.00,0.00,20.09,23.15,26.75,14.51,51.77,998.44,2054.04,3562.09,3180.97,3597.17,599.95,591.18,0.23,0000 0000 0000 0000 000000
2016-01-05 04:29:48,0.03,0.01,0.00,20.10,23.18,26.78,14.38,51.97,998.24,2054.01,3561.15,3180.32,3596.66,599.48,590.56,0.28,0000 0000 0000 0000 000000
2016-01-05 04:34:49,0.02,0.01,0.00,20.14,23.22,26.84,14.43,51.73,998.08,2054.00,3560.60,3180.02,3596.02,599.67,590.46,0.33,0000 0000 0000 0000 000000
2016-01-05 04:39:50,0.01,0.01,0.00,20.17,23.25,26.91,14.44,51.67,998.44,2054.00,3560.00,3179.97,3595.31,599.87,590.91,0.38,0000 0000 0000 0000 000000
2016-01-05 04:44:52,0.10,0.01,0.00,20.22,23.29,26.95,14.45,51.42,998.55,2053.98,3558.57,3178.44,3593.78,599.89,590.86,0.43,0000 0000 0000 0000 000000
2016-01-05 04:49:53,0.00,0.01,0.00,20.26,23.33,26.97,14.39,51.63,998.40,2053.94,3557.96,3178.01,3593.00,599.67,590.53,0.48,0000 0000 0000 0000 000000
2016-01-05 04:54:54,-0.00,0.01,0.00,20.29,23.36,27.00,14.49,51.64,998.46,2053.57,3557.13,3177.81,3592.19,599.83,590.62,0.53,0000 0000 0000 0000 000000
2016-01-05 04:59:56,-0.00,0.01,0.00,20.34,23.39,27.03,14.49,51.43,998.91,2053.11,3556.67,3177.08,3591.59,600.28,591.24,0.58,0000 0000 0000 0000 000000
2016-01-05 05:04:57,0.01,0.01,0.00,20.41,23.43,27.08,14.47,51.13,999.04,2053.02,3556.01,3176.99,3590.98,599.97,590.92,0.63,0000 0000 0000 0000 000000
2016-01-05 05:09:58,0.05,0.01,0.00,20.45,23.47,27.11,14.42,51.14,999.14,2053.00,3555.28,3176.33,3590.09,599.84,590.75,0.68,0000 0000 0000 0000 000000
2016-01-05 05:15:00,0.02,0.02,0.00,20.52,23.51,27.21,14.40,50.97,999.52,2052.99,3554.44,3176.00,3589.10,599.57,590.42,0.73,0000 0000 0000 0000 000000
2016-01-05 05:20:01,0.02,0.02,0.00,20.58,23.54,27.23,14.38,51.02,999.53,2052.95,3553.92,3175.74,3588.62,599.83,590.64,0.78,0000 0000 0000 0000 000000
2016-01-05 05:25:03,0.02,0.02,0.00,20.63,23.58,27.28,14.35,50.84,999.67,2052.64,3552.92,3174.90,3587.30,599.99,590.93,0.83,0000 0000 0000 0000 000000
2016-01-05 05:30:04,0.01,0.02,0.00,20.70,23.62,27.32,14.40,50.95,999.96,2052.16,3552.05,3174.13,3586.58,598.92,589.85,0.88,0000 0000 0000 0000 000000
2016-01-05 05:35:05,0.01,0.02,0.00,20.74,23.66,27.39,14.35,50.71,1000.01,2052.02,3551.49,3173.99,3585.95,599.51,590.44,0.93,0000 0000 0000 0000 000000
2016-01-05 05:40:07,0.04,0.02,0.00,20.80,23.69,27.41,14.47,50.93,999.89,2052.00,3550.69,3173.47,3585.11,600.07,590.69,0.98,0000 0000 0000 0000 000000
2016-01-05 05:45:08,0.02,0.02,0.00,20.80,23.73,27.43,14.46,51.40,999.53,2052.00,3549.96,3173.02,3584.45,600.03,590.48,1.03,0000 0000 0000 0000 000000
2016-01-05 05:50:09,0.04,0.02,0.00,20.81,23.77,27.45,14.43,51.42,999.51,2051.99,3549.07,3172.52,3583.34,599.95,590.23,1.08,0000 0000 0000 0000 000000
2016-01-05 05:55:10,0.01,0.03,0.00,20.83,23.81,27.48,14.35,51.48,999.40,2051.89,3548.14,3172.02,3582.59,599.96,590.29,1.13,0000 0000 0000 0000 000000
2016-01-05 06:00:12,-0.00,0.03,0.00,20.86,23.84,27.53,14.47,51.52,999.33,2051.48,3547.16,3171.39,3581.56,600.22,590.41,1.18,0000 0000 0000 0000 000000
2016-01-05 06:05:13,0.02,0.03,0.00,20.88,23.88,27.59,14.38,51.45,999.23,2051.01,3546.06,3170.88,3580.42,599.62,589.64,1.23,0000 0000 0000 0000 000000
2016-01-05 06:10:15,0.05,0.03,0.00,20.91,23.91,27.63,14.44,51.41,999.08,2051.00,3545.06,3170.07,3579.39,599.83,589.73,1.28,0000 0000 0000 0000 000000
2016-01-05 06:15:16,0.05,0.03,0.00,20.94,23.95,27.68,14.50,51.47,999.14,2050.99,3544.09,3169.31,3578.16,600.14,590.03,1.33,0000 0000 0000 0000 000000
2016-01-05 06:20:18,0.03,0.03,0.00,20.97,23.98,27.70,14.47,51.71,999.18,2050.96,3543.16,3168.84,3577.23,600.20,590.06,1.38,0000 0000 0000 0000 000000
2016-01-05 06:25:19,0.01,0.04,0.00,21.00,24.02,27.72,14.31,51.57,999.14,2050.72,3542.11,3168.07,3576.22,599.82,589.60,1.43,0000 0000 0000 0000 000000
2016-01-05 06:30:20,-0.00,0.03,0.00,21.03,24.05,27.76,14.46,51.36,999.49,2050.17,3541.17,3167.74,3575.12,600.12,590.03,1.48,0000 0000 0000 0000 000000
2016-01-05 06:35:21,0.04,0.04,0.00,21.06,24.08,27.82,14.44,51.33,999.53,2050.01,3540.13,3166.85,3573.93,600.04,589.95,1.53,0000 0000 0000 0000 000000
2016-01-05 06:40:23,0.04,0.04,0.00,21.09,24.11,27.83,14.38,51.31,999.53,2050.00,3539.32,3166.01,3572.92,599.97,589.70,1.58,0000 0000 0000 0000 000000
2016-01-05 06:45:24,0.12,0.04,0.00,21.13,24.14,27.88,14.40,51.29,999.65,2050.00,3537.49,3164.04,3570.53,599.93,589.75,1.63,0000 0000 0000 0000 000000
2016-01-05 06:50:25,0.04,0.05,0.00,21.17,24.17,27.93,14.48,51.07,1000.01,2049.96,3536.38,3163.09,3569.27,599.87,589.79,1.68,0000 0000 0000 0000 000000
2016-01-05 06:55:27,-0.01,0.05,0.00,21.22,24.20,27.97,14.49,50.94,1000.29,2049.59,3535.33,3162.75,3568.29,600.09,590.17,1.73,0000 0000 0000 0000 000000
2016-01-05 07:00:28,0.02,0.05,0.00,21.26,24.23,27.98,14.42,50.92,1000.50,2049.13,3534.23,3161.97,3567.12,599.85,589.91,1.78,0000 0000 0000 0000 000000
2016-01-05 07:05:29,0.04,0.05,0.00,21.28,24.26,28.04,14.32,50.84,1000.59,2049.01,3533.15,3161.19,3566.01,599.75,589.83,1.83,0000 0000 0000 0000 000000
2016-01-05 07:10:30,0.03,0.05,0.00,21.31,24.29,28.05,14.39,50.92,1000.88,2049.00,3532.13,3160.98,3565.06,599.78,590.01,1.88,0000 0000 0000 0000 000000
2016-01-05 07:15:31,0.05,0.05,0.00,21.38,24.32,28.12,14.32,50.78,1000.99,2049.00,3531.16,3160.21,3564.12,599.88,590.11,1.93,0000 0000 0000 0000 000000
2016-01-05 07:20:32,0.03,0.06,0.00,21.44,24.35,28.13,14.40,50.73,1000.99,2048.98,3530.14,3159.96,3563.19,599.89,589.84,1.98,0000 0000 0000 0000 000000
2016-01-05 07:25:34,0.05,0.06,0.00,21.48,24.37,28.18,14.24,50.70,1000.99,2048.95,3529.11,3159.15,3562.16,599.48,589.37,2.03,0000 0000 0000 0000 000000
2016-01-05 07:30:35,-0.01,0.06,0.00,21.51,24.40,28.22,14.41,50.81,1001.00,2048.65,3528.19,3158.97,3561.25,600.06,589.91,2.08,0000 0000 0000 0000 000000
2016-01-05 07:35:36,0.02,0.06,0.00,21.53,24.43,28.26,14.41,50.83,1000.99,2048.19,3527.16,3158.29,3560.27,599.94,589.68,2.13,0000 0000 0000 0000 000000
2016-01-05 07:40:38,0.02,0.06,0.00,21.55,24.46,28.28,14.44,50.84,1000.99,2048.02,3526.10,3157.99,3559.32,600.16,589.92,2.18,0000 0000 0000 0000 000000
2016-01-05 07:45:39,0.05,0.06,0.00,21.57,24.49,28.31,14.40,50.91,1000.98,2048.00,3524.99,3157.43,3558.34,600.11,589.75,2.24,0000 0000 0000 0000 000000
2016-01-05 07:50:40,0.03,0.06,0.00,21.60,24.52,28.34,14.41,50.78,1000.98,2047.99,3523.84,3157.00,3557.25,600.08,589.73,2.29,0000 0000 0000 0000 000000
2016-01-05 07:55:42,0.05,0.07,0.00,21.63,24.55,28.38,14.49,50.80,1000.99,2047.95,3522.68,3156.28,3556.15,600.01,589.64,2.34,0000 0000 0000 0000 000000
2016-01-05 08:00:43,0.00,0.07,0.00,21.66,24.58,28.43,14.36,50.59,1000.99,2047.72,3521.56,3155.96,3555.09,599.76,589.31,2.39,0000 0000 0000 0000 000000
2016-01-05 08:05:44,0.01,0.07,0.00,21.68,24.61,28.45,14.31,50.51,1001.00,2047.23,3520.52,3155.23,3554.11,599.63,589.32,2.44,0000 0000 0000 0000 000000
2016-01-05 08:10:46,0.02,0.07,0.00,21.71,24.65,28.47,14.32,50.63,1001.00,2047.07,3519.41,3154.97,3553.07,599.86,589.35,2.49,0000 0000 0000 0000 000000
2016-01-05 08:15:47,0.05,0.07,0.00,21.73,24.68,28.43,14.34,50.52,1001.17,2047.03,3518.35,3154.22,3551.91,599.83,589.19,2.54,0000 0000 0000 0000 000000
2016-01-05 08:20:48,0.06,0.08,0.00,21.75,24.71,28.50,14.38,50.42,1001.34,2047.00,3517.00,3153.23,3550.27,599.73,589.24,2.59,0000 0000 0000 0000 000000
2016-01-05 08:25:49,0.04,0.08,0.00,21.78,24.74,28.57,14.45,50.52,1001.47,2047.00,3515.80,3152.74,3549.14,600.40,589.88,2.64,0000 0000 0000 0000 000000
2016-01-05 08:30:50,0.04,0.08,0.00,21.82,24.77,28.56,14.38,50.41,1001.48,2047.00,3514.76,3152.06,3548.19,599.73,589.31,2.69,0000 0000 0000 0000 000000
2016-01-05 08:35:52,0.04,0.08,0.00,21.85,24.81,28.61,14.36,50.42,1001.50,2047.00,3513.65,3151.81,3547.21,599.97,589.43,2.74,0000 0000 0000 0000 000000
2016-01-05 08:40:53,0.04,0.08,0.00,21.88,24.84,28.64,14.42,50.49,1001.53,2046.98,3512.45,3151.05,3546.12,599.95,589.34,2.79,0000 0000 0000 0000 000000
2016-01-05 08:45:54,0.03,0.09,0.00,21.90,24.87,28.69,14.40,50.42,1001.60,2046.93,3511.45,3150.76,3545.17,600.41,589.87,2.84,0000 0000 0000 0000 000000
2016-01-05 08:50:55,0.02,0.09,0.00,21.93,24.90,28.71,14.42,50.58,1001.60,2046.75,3510.32,3150.04,3544.17,600.02,589.38,2.89,0000 0000 0000 0000 000000
2016-01-05 08:55:57,0.00,0.09,0.00,21.92,24.93,28.71,14.38,51.08,1001.27,2046.32,3509.23,3149.70,3543.16,600.07,589.29,2.94,0000 0000 0000 0000 000000
2016-01-05 09:00:58,0.03,0.09,0.00,21.92,24.96,28.72,14.47,51.22,1000.99,2046.05,3508.10,3148.92,3541.85,600.26,589.23,2.99,0000 0000 0000 0000 000000
2016-01-05 09:05:59,0.06,0.09,0.00,21.94,24.98,28.74,14.48,50.88,1001.00,2046.00,3506.82,3148.07,3540.58,600.70,589.67,3.04,0000 0000 0000 0000 000000
2016-01-05 09:11:01,0.05,0.09,0.00,21.94,25.01,28.78,14.47,50.80,1001.13,2046.00,3505.62,3147.37,3539.47,600.26,589.21,3.09,0000 0000 0000 0000 000000
2016-01-05 09:16:02,0.02,0.10,0.00,21.98,25.04,28.81,14.39,50.58,1001.53,2045.98,3504.53,3146.99,3538.53,599.81,589.06,3.14,0000 0000 0000 0000 000000
2016-01-05 09:21:03,0.03,0.10,0.00,22.00,25.06,28.86,14.40,50.59,1001.59,2045.92,3503.62,3146.51,3537.73,600.11,589.33,3.19,0000 0000 0000 0000 000000
2016-01-05 09:26:04,-0.01,0.10,0.00,22.01,25.09,28.85,14.46,50.98,1001.04,2045.64,3502.52,3146.01,3536.78,599.90,588.84,3.24,0000 0000 0000 0000 000000
2016-01-05 09:31:05,0.02,0.10,0.00,22.02,25.11,28.86,14.38,50.85,1000.99,2045.27,3501.59,3145.59,3535.95,599.95,588.77,3.29,0000 0000 0000 0000 000000
2016-01-05 09:36:07,0.02,0.10,0.00,22.02,25.14,28.89,14.34,50.76,1000.85,2045.07,3500.68,3145.01,3535.07,600.26,589.11,3.34,0000 0000 0000 0000 000000
2016-01-05 09:41:08,0.03,0.10,0.00,22.02,25.17,28.92,14.35,50.88,1000.62,2045.01,3499.83,3144.71,3534.18,599.52,588.13,3.39,0000 0000 0000 0000 000000
2016-01-05 09:46:09,0.04,0.10,0.00,22.04,25.20,28.93,14.35,51.04,1000.72,2045.01,3498.85,3144.05,3533.47,599.99,588.62,3.44,0000 0000 0000 0000 000000
2016-01-05 09:51:10,0.05,0.11,0.00,22.07,25.22,28.95,14.37,51.11,1000.55,2045.00,3497.85,3143.44,3532.32,600.07,588.54,3.49,0000 0000 0000 0000 000000
2016-01-05 09:56:12,0.07,0.11,0.00,22.06,25.24,28.97,14.43,51.08,1000.62,2045.00,3496.56,3142.52,3531.09,600.18,588.52,3.54,0000 0000 0000 0000 000000
2016-01-05 10:01:13,0.04,0.11,0.00,22.05,25.26,28.98,14.43,51.06,1000.83,2044.98,3495.29,3141.71,3529.79,600.16,588.82,3.59,0000 0000 0000 0000 000000
2016-01-05 10:06:14,0.03,0.11,0.00,22.05,25.29,29.04,14.38,50.88,1000.99,2044.93,3494.42,3141.03,3528.92,599.86,588.62,3.64,0000 0000 0000 0000 000000
2016-01-05 10:11:15,0.00,0.12,0.00,22.03,25.31,29.07,14.39,50.79,1000.98,2044.72,3493.68,3140.88,3528.08,599.81,588.53,3.69,0000 0000 0000 0000 000000
2016-01-05 10:16:17,0.01,0.12,0.00,22.04,25.32,29.09,14.49,51.04,1000.95,2044.41,3492.78,3140.14,3527.39,600.23,588.96,3.74,0000 0000 0000 0000 000000
2016-01-05 10:21:18,0.01,0.12,0.00,22.05,25.35,29.10,14.39,51.03,1000.98,2044.07,3491.83,3139.95,3526.48,600.32,589.15,3.79,0000 0000 0000 0000 000000
2016-01-05 10:26:19,0.02,0.12,0.00,22.05,25.36,29.14,14.38,51.08,1001.01,2044.02,3491.04,3139.56,3525.89,599.72,588.49,3.84,0000 0000 0000 0000 000000
2016-01-05 10:31:20,0.03,0.12,0.00,22.05,25.37,29.17,14.46,50.88,1001.05,2044.01,3490.26,3139.05,3525.06,600.15,588.95,3.89,0000 0000 0000 0000 000000
2016-01-05 10:36:22,0.04,0.12,0.00,22.03,25.39,29.16,14.42,50.83,1001.17,2044.00,3489.55,3138.66,3524.23,600.01,589.01,3.94,0000 0000 0000 0000 000000
2016-01-05 10:41:23,0.03,0.12,0.00,22.02,25.40,29.16,14.40,50.87,1001.19,2044.00,3488.35,3137.97,3523.07,599.99,588.92,3.99,0000 0000 0000 0000 000000
2016-01-05 10:46:24,0.04,0.12,0.00,22.02,25.41,29.18,14.43,50.95,1001.28,2044.00,3487.78,3137.28,3522.46,600.31,589.28,4.04,0000 0000 0000 0000 000000
2016-01-05 10:51:25,0.01,0.13,0.00,22.03,25.42,29.19,14.39,50.84,1001.55,2044.00,3487.01,3137.01,3521.92,599.97,588.97,4.09,0000 0000 0000 0000 000000
2016-01-05 10:56:26,0.02,0.13,0.00,22.01,25.42,29.19,14.42,50.70,1002.13,2044.00,3486.30,3136.94,3521.15,599.90,589.49,4.14,0000 0000 0000 0000 000000
2016-01-05 11:01:27,0.03,0.13,0.00,22.03,25.44,29.20,14.40,50.52,1002.63,2043.98,3485.68,3136.29,3520.72,600.26,589.96,4.19,0000 0000 0000 0000 000000
2016-01-05 11:06:29,0.01,0.13,0.00,22.04,25.45,29.16,14.42,50.57,1002.93,2043.98,3485.04,3136.04,3520.06,599.68,589.59,4.24,0000 0000 0000 0000 000000
2016-01-05 11:11:30,0.01,0.13,0.00,22.05,25.45,29.22,14.42,50.35,1002.91,2043.98,3484.45,3136.00,3519.89,599.62,589.66,4.29,0000 0000 0000 0000 000000
2016-01-05 11:16:31,0.01,0.13,0.00,22.07,25.45,29.17,14.41,50.42,1002.65,2043.96,3483.99,3135.99,3519.13,599.72,589.47,4.34,0000 0000 0000 0000 000000
2016-01-05 11:21:33,0.02,0.13,0.00,22.07,25.47,29.18,14.43,50.60,1002.44,2043.92,3483.33,3135.58,3518.98,599.75,589.38,4.39,0000 0000 0000 0000 000000
2016-01-05 11:26:34,0.01,0.13,0.00,22.07,25.47,29.19,14.40,50.34,1002.53,2043.72,3482.94,3135.05,3518.26,599.81,589.43,4.44,0000 0000 0000 0000 000000
2016-01-05 11:31:35,-0.02,0.13,0.00,22.09,25.47,29.22,14.35,50.49,1002.89,2043.33,3482.12,3135.00,3518.00,599.91,589.71,4.49,0000 0000 0000 0000 000000
2016-01-05 11:36:36,0.01,0.13,0.00,22.11,25.47,29.23,14.41,50.38,1002.96,2043.31,3481.72,3135.00,3517.66,600.13,590.05,4.54,0000 0000 0000 0000 000000
2016-01-05 11:41:38,0.01,0.13,0.00,22.13,25.48,29.23,14.37,50.27,1002.95,2043.21,3481.05,3134.99,3517.04,599.71,589.47,4.59,0000 0000 0000 0000 000000
2016-01-05 11:46:39,0.01,0.13,0.00,22.17,25.49,29.20,14.46,50.31,1003.01,2043.18,3480.67,3134.93,3516.96,600.27,589.98,4.64,0000 0000 0000 0000 000000
2016-01-05 11:51:40,0.03,0.14,0.00,22.20,25.50,29.25,14.39,50.34,1003.25,2043.12,3480.02,3134.36,3516.18,599.88,589.76,4.70,0000 0000 0000 0000 000000
2016-01-05 11:56:41,0.01,0.14,0.00,22.23,25.50,29.22,14.41,50.30,1003.14,2043.05,3479.38,3134.03,3515.98,600.04,589.65,4.75,0000 0000 0000 0000 000000
2016-01-05 12:01:43,0.01,0.14,0.00,22.22,25.50,29.27,14.45,50.24,1002.99,2043.03,3478.91,3134.00,3515.29,600.27,589.87,4.80,0000 0000 0000 0000 000000
2016-01-05 12:06:44,0.01,0.14,0.00,22.23,25.52,29.24,14.43,50.27,1002.95,2043.01,3478.08,3133.98,3514.99,600.00,589.63,4.85,0000 0000 0000 0000 000000
2016-01-05 12:11:45,0.02,0.14,0.00,22.27,25.52,29.27,14.36,50.25,1002.94,2043.02,3477.90,3133.80,3514.57,599.68,589.22,4.90,0000 0000 0000 0000 000000
2016-01-05 12:16:46,0.02,0.14,0.00,22.27,25.52,29.26,14.38,50.23,1002.99,2043.00,3477.11,3133.22,3514.01,599.86,589.48,4.95,0000 0000 0000 0000 000000
2016-01-05 12:21:48,0.02,0.14,0.00,22.29,25.55,29.30,14.44,50.28,1003.33,2043.00,3476.79,3133.01,3513.57,600.12,589.73,5.00,0000 0000 0000 0000 000000
2016-01-05 12:26:49,0.01,0.14,0.00,22.31,25.55,29.28,14.41,50.26,1003.43,2043.00,3476.06,3133.00,3513.01,600.04,589.62,5.05,0000 0000 0000 0000 000000
2016-01-05 12:31:50,0.00,0.14,0.00,22.32,25.56,29.24,14.39,50.31,1003.46,2043.00,3475.96,3132.97,3512.86,599.64,589.31,5.10,0000 0000 0000 0000 000000
2016-01-05 12:36:51,0.03,0.14,0.00,22.34,25.57,29.28,14.44,50.08,1003.69,2043.00,3475.20,3132.67,3512.09,599.79,589.60,5.15,0000 0000 0000 0000 000000
2016-01-05 12:41:53,0.01,0.15,0.00,22.35,25.58,29.32,14.33,50.07,1003.82,2042.99,3474.84,3132.06,3511.96,599.56,589.39,5.20,0000 0000 0000 0000 000000
2016-01-05 12:46:54,0.02,0.15,0.00,22.36,25.60,29.32,14.47,50.23,1003.83,2042.99,3474.07,3132.00,3511.24,600.13,589.96,5.25,0000 0000 0000 0000 000000
2016-01-05 12:51:56,0.02,0.15,0.00,22.37,25.60,29.32,14.40,50.17,1003.91,2042.96,3473.62,3131.86,3510.76,599.85,589.60,5.30,0000 0000 0000 0000 000000
2016-01-05 12:56:57,0.03,0.15,0.00,22.37,25.62,29.32,14.38,50.28,1003.77,2042.97,3473.00,3131.14,3510.04,599.76,589.55,5.35,0000 0000 0000 0000 000000
2016-01-05 13:01:58,0.02,0.15,0.00,22.35,25.62,29.34,14.38,50.28,1003.67,2042.93,3472.26,3130.99,3509.48,600.09,589.82,5.40,0000 0000 0000 0000 000000